TimeIST,TemperatureF,Dew PointF,Humidity,Sea Level PressureIn,VisibilityMPH,Wind Direction,Wind SpeedMPH,Gust SpeedMPH,PrecipitationIn,Events,Conditions,WindDirDegrees,DateUTC
12:10 AM,73.4,62.6,69,29.98,3.1,NE,5.8,-,N/A,,Haze,50,2013-02-25 18:40:00
12:40 AM,71.6,62.6,73,29.98,3.1,NE,5.8,-,N/A,,Haze,40,2013-02-25 19:10:00
1:10 AM,71.6,62.6,73,29.95,2.5,NE,4.6,-,N/A,,Haze,40,2013-02-25 19:40:00
1:40 AM,71.6,64.4,78,29.95,2.5,Calm,Calm,-,N/A,,Haze,0,2013-02-25 20:10:00
2:10 AM,69.8,64.4,83,29.95,2.5,Calm,Calm,-,N/A,,Haze,0,2013-02-25 20:40:00
2:30 AM,69,64,78,29.93,1,Calm,Calm,,,,Haze,,2013-02-25 21:00:00
2:40 AM,69.8,64.4,83,29.92,2.5,Calm,Calm,-,N/A,,Haze,0,2013-02-25 21:10:00
3:10 AM,68.0,64.4,88,29.92,2.5,NE,2.3,-,N/A,,Haze,50,2013-02-25 21:40:00
3:40 AM,68.0,64.4,88,29.92,2.5,East,3.5,-,N/A,,Haze,90,2013-02-25 22:10:00
4:40 AM,68.0,64.4,88,29.92,1.9,East,3.5,-,N/A,,Haze,90,2013-02-25 23:10:00
5:10 AM,68.0,64.4,88,29.92,1.9,East,3.5,-,N/A,,Haze,100,2013-02-25 23:40:00
5:30 AM,67,64,86,29.94,1,ESE,3.5,,,,Haze,110,2013-02-26 00:00:00
5:40 AM,66.2,64.4,94,29.95,1.6,SE,3.5,-,N/A,,Haze,130,2013-02-26 00:10:00
6:10 AM,66.2,64.4,94,29.95,0.2,East,3.5,-,N/A,Fog,Fog,100,2013-02-26 00:40:00
6:40 AM,66.2,64.4,94,29.95,0.1,Calm,Calm,-,N/A,Fog,Fog,0,2013-02-26 01:10:00
7:10 AM,68.0,64.4,88,29.98,0.2,Calm,Calm,-,N/A,Fog,Fog,0,2013-02-26 01:40:00
8:30 AM,73,67,75,29.99,1,East,10.4,,,,Haze,90,2013-02-26 03:00:00
8:40 AM,73.4,68.0,83,29.98,1.2,East,9.2,-,N/A,,Scattered Clouds,100,2013-02-26 03:10:00
9:10 AM,75.2,68.0,78,29.98,1.6,NE,10.4,-,N/A,,Haze,50,2013-02-26 03:40:00
9:40 AM,77.0,68.0,74,29.71,1.6,NE,8.1,-,N/A,,Haze,50,2013-02-26 04:10:00
11:30 AM,87,61,31,29.98,2,East,2.3,,,,Haze,90,2013-02-26 06:00:00
11:40 AM,86.0,66.2,51,29.98,3.1,NE,8.1,-,N/A,,Haze,40,2013-02-26 06:10:00
12:10 PM,87.8,62.6,43,29.98,3.7,ENE,9.2,-,N/A,,Haze,60,2013-02-26 06:40:00
12:40 PM,89.6,66.2,46,29.95,3.7,East,6.9,-,N/A,,Haze,90,2013-02-26 07:10:00
1:10 PM,91.4,64.4,41,29.95,5.0,ENE,8.1,-,N/A,,Haze,70,2013-02-26 07:40:00
1:40 PM,91.4,66.2,43,29.92,5.0,ENE,9.2,-,N/A,,Unknown,60,2013-02-26 08:10:00
2:10 PM,93.2,57.2,30,29.89,5.0,East,11.5,-,N/A,,Unknown,80,2013-02-26 08:40:00
2:30 PM,96,54,15,29.88,2,East,11.5,,,,Haze,90,2013-02-26 09:00:00
2:40 PM,93.2,57.2,30,29.89,5.0,East,11.5,-,N/A,,Unknown,80,2013-02-26 09:10:00
3:10 PM,96.8,57.2,27,29.86,-9999.0,East,9.2,-,N/A,,Clear,90,2013-02-26 09:40:00
3:40 PM,96.8,55.4,25,29.86,-9999.0,East,13.8,-,N/A,,Clear,90,2013-02-26 10:10:00
4:10 PM,95.0,55.4,26,29.86,-9999.0,East,13.8,-,N/A,,Clear,80,2013-02-26 10:40:00
4:40 PM,93.2,55.4,28,29.86,-9999.0,East,12.7,-,N/A,,Clear,100,2013-02-26 11:10:00
5:10 PM,93.2,55.4,28,29.86,-9999.0,East,11.5,-,N/A,,Clear,90,2013-02-26 11:40:00
5:30 PM,93,52,16,29.86,6,East,11.5,,,,Clear,90,2013-02-26 12:00:00
5:40 PM,93.2,55.4,28,29.86,-9999.0,East,11.5,-,N/A,,Clear,100,2013-02-26 12:10:00
6:10 PM,89.6,57.2,33,29.89,5.0,East,9.2,-,N/A,,Unknown,90,2013-02-26 12:40:00
6:40 PM,86.0,57.2,37,29.89,3.7,East,8.1,-,N/A,,Unknown,90,2013-02-26 13:10:00
7:10 PM,82.4,57.2,42,29.89,3.7,East,8.1,-,N/A,,Unknown,90,2013-02-26 13:40:00
7:40 PM,82.4,57.2,42,29.92,3.7,East,9.2,-,N/A,,Unknown,90,2013-02-26 14:10:00
8:10 PM,82.4,57.2,42,29.95,3.7,East,8.1,-,N/A,,Unknown,90,2013-02-26 14:40:00
8:30 PM,81,55,30,29.94,2,East,8.1,,,,Haze,90,2013-02-26 15:00:00
8:40 PM,80.6,57.2,45,29.95,3.7,East,6.9,-,N/A,,Unknown,90,2013-02-26 15:10:00
9:10 PM,80.6,57.2,45,29.95,3.7,East,8.1,-,N/A,,Unknown,90,2013-02-26 15:40:00
9:40 PM,78.8,57.2,47,29.98,3.7,East,5.8,-,N/A,,Unknown,90,2013-02-26 16:10:00
10:10 PM,78.8,57.2,47,29.98,3.7,ENE,4.6,-,N/A,,Unknown,70,2013-02-26 16:40:00
10:40 PM,78.8,57.2,47,29.98,3.7,ENE,2.3,-,N/A,,Unknown,60,2013-02-26 17:10:00
11:10 PM,78.8,59.0,51,29.98,3.7,ENE,2.3,-,N/A,,Haze,60,2013-02-26 17:40:00
11:30 PM,73,58,50,29.98,2,ENE,2.3,,,,Haze,70,2013-02-26 18:00:00
11:40 PM,75.2,59.0,57,29.98,3.7,ENE,2.3,-,N/A,,Haze,70,2013-02-26 18:10:00